Time,TemperatureF,DewpointF,PressureIn,WindDirection,WindDirectionDegrees,WindSpeedMPH,WindSpeedGustMPH,Humidity,HourlyPrecipIn,Conditions,Clouds,dailyrainin,SoftwareType,DateUTC
2013-05-04 00:01:00,58.2,47.7,30.12,ENE,65,4.0,12.0,68,0.00,,---,0.00,VWS V14.01,2013-05-04 04:01:00,
2013-05-04 00:02:00,58.2,47.7,30.12,ENE,78,9.0,9.0,68,0.00,,---,0.00,VWS V14.01,2013-05-04 04:02:00,
2013-05-04 00:07:00,58.0,47.5,30.12,SSE,155,2.0,11.0,68,0.00,,---,0.00,VWS V14.01,2013-05-04 04:07:00,
2013-05-04 00:12:00,57.8,47.3,30.12,SE,129,6.0,11.0,68,0.00,,---,0.00,VWS V14.01,2013-05-04 04:12:00,
2013-05-04 00:17:00,57.6,47.1,30.13,ENE,68,2.0,9.0,68,0.00,,---,0.00,VWS V14.01,2013-05-04 04:17:00,
2013-05-04 00:22:00,57.4,47.3,30.13,ENE,72,2.0,6.0,69,0.00,,---,0.00,VWS V14.01,2013-05-04 04:22:00,
2013-05-04 00:27:00,57.0,46.9,30.13,SE,139,1.0,9.0,69,0.00,,---,0.00,VWS V14.01,2013-05-04 04:27:00,
2013-05-04 00:32:00,56.8,47.1,30.13,ENE,76,12.0,12.0,70,0.00,,---,0.00,VWS V14.01,2013-05-04 04:32:00,
2013-05-04 00:37:00,56.6,46.9,30.12,East,91,2.0,6.0,70,0.00,,---,0.00,VWS V14.01,2013-05-04 04:37:00,
2013-05-04 00:42:00,56.3,47.0,30.12,East,91,10.0,10.0,71,0.00,,---,0.00,VWS V14.01,2013-05-04 04:42:00,
2013-05-04 00:47:00,56.1,46.8,30.12,ENE,64,6.0,7.0,71,0.00,,---,0.00,VWS V14.01,2013-05-04 04:47:00,
2013-05-04 00:52:00,55.8,46.9,30.13,NE,43,4.0,10.0,72,0.00,,---,0.00,VWS V14.01,2013-05-04 04:52:00,
2013-05-04 00:57:00,55.7,46.8,30.12,ENE,57,6.0,16.0,72,0.00,,---,0.00,VWS V14.01,2013-05-04 04:57:00,
2013-05-04 01:02:00,55.6,46.7,30.13,NE,43,5.0,10.0,72,0.00,,---,0.00,VWS V14.01,2013-05-04 05:02:00,
2013-05-04 01:07:00,55.4,46.5,30.12,NE,45,2.0,10.0,72,0.00,,---,0.00,VWS V14.01,2013-05-04 05:07:00,
2013-05-04 01:12:00,55.2,46.7,30.13,NNW,335,5.0,9.0,73,0.00,,---,0.00,VWS V14.01,2013-05-04 05:12:00,
2013-05-04 01:17:00,55.0,46.5,30.13,ESE,105,0.0,4.0,73,0.00,,---,0.00,VWS V14.01,2013-05-04 05:17:00,
2013-05-04 01:22:00,54.8,46.7,30.13,ENE,63,4.0,4.0,74,0.00,,---,0.00,VWS V14.01,2013-05-04 05:22:00,
2013-05-04 01:27:00,54.6,46.5,30.13,West,280,1.0,4.0,74,0.00,,---,0.00,VWS V14.01,2013-05-04 05:27:00,
2013-05-04 01:33:00,54.5,45.7,30.13,East,84,3.0,14.0,72,0.00,,---,0.00,VWS V14.01,2013-05-04 05:33:00,
2013-05-04 01:38:00,54.4,45.6,30.13,ENE,64,6.0,15.0,72,0.00,,---,0.00,VWS V14.01,2013-05-04 05:38:00,
2013-05-04 01:43:00,54.2,45.0,30.13,ENE,72,2.0,8.0,71,0.00,,---,0.00,VWS V14.01,2013-05-04 05:43:00,
2013-05-04 01:48:00,54.0,44.5,30.13,ENE,68,13.0,16.0,70,0.00,,---,0.00,VWS V14.01,2013-05-04 05:48:00,
2013-05-04 01:53:00,53.9,44.0,30.13,ENE,72,3.0,11.0,69,0.00,,---,0.00,VWS V14.01,2013-05-04 05:53:00,
2013-05-04 01:58:00,53.7,43.8,30.12,SSE,147,2.0,10.0,69,0.00,,---,0.00,VWS V14.01,2013-05-04 05:58:00,
2013-05-04 02:03:00,53.4,43.9,30.12,NNE,30,5.0,11.0,70,0.00,,---,0.00,VWS V14.01,2013-05-04 06:03:00,
2013-05-04 02:08:00,53.2,43.7,30.12,NE,53,5.0,10.0,70,0.00,,---,0.00,VWS V14.01,2013-05-04 06:08:00,
2013-05-04 02:13:00,53.1,44.0,30.11,ENE,65,4.0,10.0,71,0.00,,---,0.00,VWS V14.01,2013-05-04 06:13:00,
2013-05-04 02:18:00,52.8,43.7,30.11,East,96,2.0,12.0,71,0.00,,---,0.00,VWS V14.01,2013-05-04 06:18:00,
2013-05-04 02:23:00,52.7,43.9,30.11,NE,49,3.0,4.0,72,0.00,,---,0.00,VWS V14.01,2013-05-04 06:23:00,
2013-05-04 02:28:00,52.5,44.1,30.11,NNE,23,4.0,7.0,73,0.00,,---,0.00,VWS V14.01,2013-05-04 06:28:00,
2013-05-04 02:33:00,52.4,44.0,30.11,NE,51,4.0,16.0,73,0.00,,---,0.00,VWS V14.01,2013-05-04 06:33:00,
2013-05-04 02:38:00,52.3,43.9,30.11,NE,51,4.0,9.0,73,0.00,,---,0.00,VWS V14.01,2013-05-04 06:38:00,
2013-05-04 02:43:00,52.2,43.8,30.11,NE,48,1.0,15.0,73,0.00,,---,0.00,VWS V14.01,2013-05-04 06:43:00,
2013-05-04 02:48:00,52.2,44.2,30.10,NE,37,2.0,8.0,74,0.00,,---,0.00,VWS V14.01,2013-05-04 06:48:00,
2013-05-04 02:53:00,52.1,43.7,30.10,NE,44,1.0,12.0,73,0.00,,---,0.00,VWS V14.01,2013-05-04 06:53:00,
2013-05-04 02:58:00,52.0,43.6,30.10,ENE,57,5.0,10.0,73,0.00,,---,0.00,VWS V14.01,2013-05-04 06:58:00,
2013-05-04 03:03:00,52.0,43.6,30.10,NE,47,15.0,16.0,73,0.00,,---,0.00,VWS V14.01,2013-05-04 07:03:00,
2013-05-04 03:08:00,51.9,43.9,30.10,NNE,26,10.0,14.0,74,0.00,,---,0.00,VWS V14.01,2013-05-04 07:08:00,
2013-05-04 03:13:00,51.8,43.8,30.10,NE,46,9.0,13.0,74,0.00,,---,0.00,VWS V14.01,2013-05-04 07:13:00,
2013-05-04 03:19:00,51.7,43.7,30.10,NE,41,2.0,10.0,74,0.00,,---,0.00,VWS V14.01,2013-05-04 07:19:00,
2013-05-04 03:24:00,51.7,44.0,30.10,NE,47,0.0,11.0,75,0.00,,---,0.00,VWS V14.01,2013-05-04 07:24:00,
2013-05-04 03:29:00,51.6,44.0,30.10,NE,39,4.0,11.0,75,0.00,,---,0.00,VWS V14.01,2013-05-04 07:29:00,
2013-05-04 03:34:00,51.6,44.0,30.10,NE,56,4.0,14.0,75,0.00,,---,0.00,VWS V14.01,2013-05-04 07:34:00,
2013-05-04 03:39:00,51.5,43.8,30.10,NE,49,4.0,12.0,75,0.00,,---,0.00,VWS V14.01,2013-05-04 07:39:00,
2013-05-04 03:44:00,51.4,44.1,30.10,NNE,12,4.0,13.0,76,0.00,,---,0.00,VWS V14.01,2013-05-04 07:44:00,
2013-05-04 03:49:00,51.3,44.0,30.10,NE,43,2.0,14.0,76,0.00,,---,0.00,VWS V14.01,2013-05-04 07:49:00,
2013-05-04 03:54:00,51.3,44.0,30.10,NNE,18,5.0,15.0,76,0.00,,---,0.00,VWS V14.01,2013-05-04 07:54:00,
2013-05-04 03:59:00,51.2,43.9,30.10,NE,34,11.0,15.0,76,0.00,,---,0.00,VWS V14.01,2013-05-04 07:59:00,
2013-05-04 04:04:00,51.2,43.9,30.10,NNE,23,2.0,12.0,76,0.00,,---,0.00,VWS V14.01,2013-05-04 08:04:00,
2013-05-04 04:09:00,51.1,43.8,30.10,ENE,57,7.0,16.0,76,0.00,,---,0.00,VWS V14.01,2013-05-04 08:09:00,
2013-05-04 04:14:00,51.0,43.7,30.10,NE,36,4.0,10.0,76,0.00,,---,0.00,VWS V14.01,2013-05-04 08:14:00,
2013-05-04 04:19:00,51.0,43.7,30.10,ENE,65,3.0,16.0,76,0.00,,---,0.00,VWS V14.01,2013-05-04 08:19:00,
2013-05-04 04:24:00,50.9,44.0,30.10,ENE,71,8.0,8.0,77,0.00,,---,0.00,VWS V14.01,2013-05-04 08:24:00,
2013-05-04 04:29:00,50.8,43.9,30.10,ENE,58,11.0,12.0,77,0.00,,---,0.00,VWS V14.01,2013-05-04 08:29:00,
2013-05-04 04:34:00,50.8,43.9,30.10,NNE,27,5.0,9.0,77,0.00,,---,0.00,VWS V14.01,2013-05-04 08:34:00,
2013-05-04 04:39:00,50.6,44.0,30.10,NE,44,5.0,5.0,78,0.00,,---,0.00,VWS V14.01,2013-05-04 08:39:00,
2013-05-04 04:45:00,50.6,44.0,30.10,NE,53,9.0,12.0,78,0.00,,---,0.00,VWS V14.01,2013-05-04 08:45:00,
2013-05-04 04:50:00,50.5,43.9,30.10,ENE,69,3.0,9.0,78,0.00,,---,0.00,VWS V14.01,2013-05-04 08:50:00,
2013-05-04 04:55:00,50.5,43.9,30.09,NE,47,4.0,12.0,78,0.00,,---,0.00,VWS V14.01,2013-05-04 08:55:00,
2013-05-04 05:00:00,50.5,43.9,30.09,NNE,32,12.0,12.0,78,0.00,,---,0.00,VWS V14.01,2013-05-04 09:00:00,
2013-05-04 05:05:00,50.4,43.8,30.09,NNE,32,4.0,12.0,78,0.00,,---,0.00,VWS V14.01,2013-05-04 09:05:00,
2013-05-04 05:10:00,50.4,43.8,30.10,ENE,77,0.0,11.0,78,0.00,,---,0.00,VWS V14.01,2013-05-04 09:10:00,
2013-05-04 05:15:00,50.3,44.0,30.10,ENE,60,6.0,14.0,79,0.00,,---,0.00,VWS V14.01,2013-05-04 09:15:00,
2013-05-04 05:20:00,50.3,44.0,30.10,NE,43,7.0,12.0,79,0.00,,---,0.00,VWS V14.01,2013-05-04 09:20:00,
2013-05-04 05:25:00,50.3,44.0,30.10,North,358,2.0,9.0,79,0.00,,---,0.00,VWS V14.01,2013-05-04 09:25:00,
2013-05-04 05:30:00,50.2,44.0,30.10,ENE,64,2.0,6.0,79,0.00,,---,0.00,VWS V14.01,2013-05-04 09:30:00,
2013-05-04 05:35:00,50.2,44.3,30.10,NE,35,0.0,6.0,80,0.00,,---,0.00,VWS V14.01,2013-05-04 09:35:00,
2013-05-04 05:40:00,50.1,44.2,30.10,NNE,32,7.0,11.0,80,0.00,,---,0.00,VWS V14.01,2013-05-04 09:40:00,
2013-05-04 05:45:00,50.1,44.2,30.10,NNE,20,12.0,13.0,80,0.00,,---,0.00,VWS V14.01,2013-05-04 09:45:00,
2013-05-04 05:50:00,50.0,44.1,30.10,ENE,62,4.0,11.0,80,0.00,,---,0.00,VWS V14.01,2013-05-04 09:50:00,
2013-05-04 05:55:00,50.0,44.4,30.10,NNE,31,4.0,11.0,81,0.00,,---,0.00,VWS V14.01,2013-05-04 09:55:00,
2013-05-04 06:00:00,49.9,44.0,30.10,East,79,5.0,17.0,80,0.00,,---,0.00,VWS V14.01,2013-05-04 10:00:00,
2013-05-04 06:05:00,49.9,44.3,30.11,NE,35,3.0,15.0,81,0.00,,---,0.00,VWS V14.01,2013-05-04 10:05:00,
2013-05-04 06:10:00,49.9,44.3,30.10,NNE,19,5.0,14.0,81,0.00,,---,0.00,VWS V14.01,2013-05-04 10:10:00,
2013-05-04 06:15:00,49.9,44.3,30.11,NE,50,7.0,12.0,81,0.00,,---,0.00,VWS V14.01,2013-05-04 10:15:00,
2013-05-04 06:20:00,49.8,44.2,30.11,NNE,27,5.0,12.0,81,0.00,,---,0.00,VWS V14.01,2013-05-04 10:20:00,
2013-05-04 06:25:00,49.8,44.5,30.11,NNE,32,3.0,13.0,82,0.00,,---,0.00,VWS V14.01,2013-05-04 10:25:00,
2013-05-04 06:30:00,49.7,44.4,30.11,ENE,62,8.0,15.0,82,0.00,,---,0.00,VWS V14.01,2013-05-04 10:30:00,
2013-05-04 06:35:00,49.7,44.4,30.11,NE,39,11.0,20.0,82,0.00,,---,0.00,VWS V14.01,2013-05-04 10:35:00,
2013-05-04 06:40:00,49.7,44.4,30.11,NNW,347,1.0,14.0,82,0.00,,---,0.00,VWS V14.01,2013-05-04 10:40:00,
2013-05-04 06:45:00,49.7,44.8,30.11,ENE,60,0.0,11.0,83,0.00,,---,0.00,VWS V14.01,2013-05-04 10:45:00,
2013-05-04 06:50:00,49.6,44.7,30.11,NE,56,5.0,11.0,83,0.00,,---,0.00,VWS V14.01,2013-05-04 10:50:00,
2013-05-04 06:56:00,49.5,44.6,30.11,NE,48,10.0,15.0,83,0.00,,---,0.00,VWS V14.01,2013-05-04 10:56:00,
2013-05-04 07:01:00,49.5,44.6,30.12,NE,36,5.0,10.0,83,0.00,,---,0.00,VWS V14.01,2013-05-04 11:01:00,
2013-05-04 07:06:00,49.5,44.9,30.12,NNW,336,3.0,8.0,84,0.00,,---,0.00,VWS V14.01,2013-05-04 11:06:00,
2013-05-04 07:11:00,49.5,44.9,30.12,East,83,7.0,11.0,84,0.00,,---,0.00,VWS V14.01,2013-05-04 11:11:00,
2013-05-04 07:16:00,49.6,45.0,30.12,NE,43,3.0,11.0,84,0.00,,---,0.00,VWS V14.01,2013-05-04 11:16:00,
2013-05-04 07:21:00,49.6,45.0,30.12,NE,34,0.0,12.0,84,0.00,,---,0.00,VWS V14.01,2013-05-04 11:21:00,
2013-05-04 07:26:00,49.6,45.0,30.12,NE,41,3.0,14.0,84,0.00,,---,0.00,VWS V14.01,2013-05-04 11:26:00,
2013-05-04 07:31:00,49.7,45.1,30.12,NE,35,10.0,16.0,84,0.00,,---,0.00,VWS V14.01,2013-05-04 11:31:00,
2013-05-04 07:36:00,49.7,45.1,30.12,ENE,77,4.0,9.0,84,0.00,,---,0.00,VWS V14.01,2013-05-04 11:36:00,
2013-05-04 07:41:00,49.7,45.1,30.12,ENE,58,3.0,16.0,84,0.00,,---,0.00,VWS V14.01,2013-05-04 11:41:00,
2013-05-04 07:46:00,49.7,45.1,30.12,NNE,22,5.0,8.0,84,0.00,,---,0.00,VWS V14.01,2013-05-04 11:46:00,
2013-05-04 07:51:00,49.7,45.1,30.12,NE,43,6.0,11.0,84,0.00,,---,0.00,VWS V14.01,2013-05-04 11:51:00,
2013-05-04 07:56:00,49.8,45.2,30.12,NE,44,4.0,4.0,84,0.00,,---,0.00,VWS V14.01,2013-05-04 11:56:00,
2013-05-04 08:02:00,49.9,45.3,30.12,NE,43,5.0,11.0,84,0.00,,---,0.00,VWS V14.01,2013-05-04 12:02:00,
2013-05-04 08:07:00,50.0,45.4,30.12,NNE,25,2.0,5.0,84,0.00,,---,0.00,VWS V14.01,2013-05-04 12:07:00,
2013-05-04 08:12:00,50.0,45.4,30.12,NE,48,9.0,12.0,84,0.00,,---,0.00,VWS V14.01,2013-05-04 12:12:00,
2013-05-04 08:17:00,50.1,45.5,30.12,NE,37,6.0,10.0,84,0.00,,---,0.00,VWS V14.01,2013-05-04 12:17:00,
2013-05-04 08:23:00,50.3,45.7,30.12,ENE,60,9.0,17.0,84,0.00,,---,0.00,VWS V14.01,2013-05-04 12:23:00,
2013-05-04 08:28:00,50.4,45.8,30.12,NE,46,8.0,16.0,84,0.00,,---,0.00,VWS V14.01,2013-05-04 12:28:00,
2013-05-04 08:33:00,50.4,45.8,30.12,NE,43,7.0,14.0,84,0.00,,---,0.00,VWS V14.01,2013-05-04 12:33:00,
2013-05-04 08:39:00,50.4,45.8,30.11,NE,48,6.0,18.0,84,0.00,,---,0.00,VWS V14.01,2013-05-04 12:39:00,
2013-05-04 08:44:00,50.5,45.8,30.12,ENE,58,4.0,13.0,84,0.00,,---,0.00,VWS V14.01,2013-05-04 12:44:00,
2013-05-04 08:49:00,50.5,45.8,30.12,NE,47,3.0,15.0,84,0.00,,---,0.00,VWS V14.01,2013-05-04 12:49:00,
2013-05-04 08:54:00,50.6,46.0,30.11,ENE,60,4.0,12.0,84,0.00,,---,0.00,VWS V14.01,2013-05-04 12:54:00,
2013-05-04 08:59:00,50.6,46.0,30.11,NE,45,9.0,13.0,84,0.00,,---,0.00,VWS V14.01,2013-05-04 12:59:00,
2013-05-04 09:04:00,50.6,46.0,30.12,NNE,16,7.0,15.0,84,0.00,,---,0.00,VWS V14.01,2013-05-04 13:04:00,
2013-05-04 09:09:00,50.6,46.3,30.12,NE,39,8.0,8.0,85,0.00,,---,0.00,VWS V14.01,2013-05-04 13:09:00,
2013-05-04 09:14:00,50.7,46.4,30.12,NNE,23,9.0,12.0,85,0.00,,---,0.00,VWS V14.01,2013-05-04 13:14:00,
2013-05-04 09:19:00,50.7,46.4,30.12,NE,41,2.0,14.0,85,0.00,,---,0.00,VWS V14.01,2013-05-04 13:19:00,
2013-05-04 09:24:00,50.8,46.5,30.11,NE,44,4.0,17.0,85,0.00,,---,0.00,VWS V14.01,2013-05-04 13:24:00,
2013-05-04 09:29:00,50.8,46.5,30.11,ENE,70,14.0,14.0,85,0.00,,---,0.00,VWS V14.01,2013-05-04 13:29:00,
2013-05-04 09:34:00,51.0,46.7,30.11,East,82,5.0,15.0,85,0.00,,---,0.00,VWS V14.01,2013-05-04 13:34:00,
2013-05-04 09:39:00,51.2,46.8,30.11,NNE,28,12.0,14.0,85,0.00,,---,0.00,VWS V14.01,2013-05-04 13:39:00,
2013-05-04 09:44:00,51.2,46.8,30.11,NE,51,6.0,14.0,85,0.00,,---,0.00,VWS V14.01,2013-05-04 13:44:00,
2013-05-04 09:49:00,51.3,47.0,30.11,ENE,68,2.0,12.0,85,0.00,,---,0.00,VWS V14.01,2013-05-04 13:49:00,
2013-05-04 09:54:00,51.4,47.0,30.11,ENE,60,7.0,15.0,85,0.00,,---,0.00,VWS V14.01,2013-05-04 13:54:00,
2013-05-04 09:59:00,51.6,47.2,30.11,NE,41,5.0,16.0,85,0.00,,---,0.00,VWS V14.01,2013-05-04 13:59:00,
2013-05-04 10:04:00,51.7,47.3,30.11,NE,51,1.0,14.0,85,0.00,,---,0.00,VWS V14.01,2013-05-04 14:04:00,
2013-05-04 10:09:00,51.9,47.5,30.11,NE,49,8.0,14.0,85,0.00,,---,0.00,VWS V14.01,2013-05-04 14:09:00,
2013-05-04 10:14:00,52.1,47.7,30.11,NNE,26,1.0,21.0,85,0.00,,---,0.00,VWS V14.01,2013-05-04 14:14:00,
2013-05-04 10:19:00,52.3,47.9,30.11,ENE,64,2.0,22.0,85,0.00,,---,0.00,VWS V14.01,2013-05-04 14:19:00,
2013-05-04 10:24:00,52.6,48.2,30.10,NNW,331,2.0,17.0,85,0.00,,---,0.00,VWS V14.01,2013-05-04 14:24:00,
2013-05-04 10:29:00,52.9,48.5,30.10,NE,53,1.0,13.0,85,0.00,,---,0.00,VWS V14.01,2013-05-04 14:29:00,
2013-05-04 10:35:00,53.1,48.4,30.10,ESE,114,7.0,16.0,84,0.00,,---,0.00,VWS V14.01,2013-05-04 14:35:00,
2013-05-04 10:40:00,53.3,48.6,30.10,East,83,12.0,19.0,84,0.00,,---,0.00,VWS V14.01,2013-05-04 14:40:00,
2013-05-04 10:45:00,53.3,48.6,30.10,East,93,18.0,24.0,84,0.00,,---,0.00,VWS V14.01,2013-05-04 14:45:00,
2013-05-04 10:50:00,53.0,48.6,30.10,ENE,77,5.0,25.0,85,0.00,,---,0.00,VWS V14.01,2013-05-04 14:50:00,
2013-05-04 10:55:00,52.8,48.4,30.10,ENE,78,6.0,19.0,85,0.00,,---,0.00,VWS V14.01,2013-05-04 14:55:00,
2013-05-04 11:00:00,52.8,48.4,30.11,East,96,4.0,15.0,85,0.00,,---,0.00,VWS V14.01,2013-05-04 15:00:00,
2013-05-04 11:05:00,53.0,48.6,30.10,ENE,77,9.0,13.0,85,0.00,,---,0.00,VWS V14.01,2013-05-04 15:05:00,
2013-05-04 11:10:00,53.3,48.9,30.10,NE,50,6.0,14.0,85,0.00,,---,0.00,VWS V14.01,2013-05-04 15:10:00,
2013-05-04 11:15:00,53.5,48.8,30.10,East,83,14.0,22.0,84,0.00,,---,0.00,VWS V14.01,2013-05-04 15:15:00,
2013-05-04 11:20:00,53.5,48.8,30.10,NE,56,9.0,15.0,84,0.00,,---,0.00,VWS V14.01,2013-05-04 15:20:00,
2013-05-04 11:25:00,53.6,48.9,30.10,NE,39,9.0,15.0,84,0.00,,---,0.00,VWS V14.01,2013-05-04 15:25:00,
2013-05-04 11:30:00,53.7,49.0,30.10,NE,47,5.0,22.0,84,0.00,,---,0.00,VWS V14.01,2013-05-04 15:30:00,
2013-05-04 11:35:00,53.6,48.9,30.10,NE,36,6.0,17.0,84,0.00,,---,0.00,VWS V14.01,2013-05-04 15:35:00,
2013-05-04 11:40:00,53.8,49.1,30.10,ENE,65,5.0,12.0,84,0.00,,---,0.00,VWS V14.01,2013-05-04 15:40:00,
2013-05-04 11:45:00,54.2,49.8,30.10,NNE,33,6.0,10.0,85,0.00,,---,0.00,VWS V14.01,2013-05-04 15:45:00,
2013-05-04 11:50:00,54.4,49.3,30.09,NE,47,1.0,12.0,83,0.00,,---,0.00,VWS V14.01,2013-05-04 15:50:00,
2013-05-04 11:55:00,54.5,49.5,30.10,NE,49,7.0,13.0,83,0.00,,---,0.00,VWS V14.01,2013-05-04 15:55:00,
2013-05-04 12:00:00,54.5,49.5,30.09,ENE,66,4.0,23.0,83,0.00,,---,0.00,VWS V14.01,2013-05-04 16:00:00,
2013-05-04 12:05:00,54.6,49.5,30.09,ENE,75,5.0,15.0,83,0.00,,---,0.00,VWS V14.01,2013-05-04 16:05:00,
2013-05-04 12:10:00,54.8,49.4,30.09,NNE,32,5.0,13.0,82,0.00,,---,0.00,VWS V14.01,2013-05-04 16:10:00,
2013-05-04 12:15:00,55.1,49.7,30.09,North,10,0.0,10.0,82,0.00,,---,0.00,VWS V14.01,2013-05-04 16:15:00,
2013-05-04 12:20:00,55.1,49.4,30.09,NE,49,12.0,19.0,81,0.00,,---,0.00,VWS V14.01,2013-05-04 16:20:00,
2013-05-04 12:25:00,55.3,49.9,30.08,NE,45,4.0,13.0,82,0.00,,---,0.00,VWS V14.01,2013-05-04 16:25:00,
2013-05-04 12:30:00,55.6,49.9,30.08,NE,54,10.0,11.0,81,0.00,,---,0.00,VWS V14.01,2013-05-04 16:30:00,
2013-05-04 12:35:00,55.7,49.6,30.08,North,352,4.0,17.0,80,0.00,,---,0.00,VWS V14.01,2013-05-04 16:35:00,
2013-05-04 12:40:00,55.6,49.5,30.08,NE,51,11.0,18.0,80,0.00,,---,0.00,VWS V14.01,2013-05-04 16:40:00,
2013-05-04 12:45:00,55.7,50.0,30.08,NNE,20,4.0,14.0,81,0.00,,---,0.00,VWS V14.01,2013-05-04 16:45:00,
2013-05-04 12:50:00,55.9,49.8,30.08,NNE,22,5.0,16.0,80,0.00,,---,0.00,VWS V14.01,2013-05-04 16:50:00,
2013-05-04 12:55:00,56.2,50.1,30.08,East,79,3.0,13.0,80,0.00,,---,0.00,VWS V14.01,2013-05-04 16:55:00,
2013-05-04 13:00:00,56.8,50.7,30.08,NE,53,2.0,11.0,80,0.00,,---,0.00,VWS V14.01,2013-05-04 17:00:00,
2013-05-04 13:05:00,57.1,50.7,30.07,ENE,58,9.0,14.0,79,0.00,,---,0.00,VWS V14.01,2013-05-04 17:05:00,
2013-05-04 13:10:00,57.2,50.4,30.07,ENE,61,11.0,16.0,78,0.00,,---,0.00,VWS V14.01,2013-05-04 17:10:00,
2013-05-04 13:15:00,57.5,50.4,30.07,NE,43,12.0,16.0,77,0.00,,---,0.00,VWS V14.01,2013-05-04 17:15:00,
2013-05-04 13:20:00,57.7,50.5,30.07,ENE,65,1.0,17.0,77,0.00,,---,0.00,VWS V14.01,2013-05-04 17:20:00,
2013-05-04 13:25:00,58.0,50.8,30.06,ENE,57,2.0,16.0,77,0.00,,---,0.00,VWS V14.01,2013-05-04 17:25:00,
2013-05-04 13:30:00,58.6,51.1,30.06,East,81,3.0,18.0,76,0.00,,---,0.00,VWS V14.01,2013-05-04 17:30:00,
2013-05-04 13:35:00,59.1,51.2,30.06,NE,49,10.0,17.0,75,0.00,,---,0.00,VWS V14.01,2013-05-04 17:35:00,
2013-05-04 13:40:00,59.6,51.3,30.06,NE,54,5.0,17.0,74,0.00,,---,0.00,VWS V14.01,2013-05-04 17:40:00,
2013-05-04 13:45:00,59.5,50.8,30.06,NE,43,11.0,20.0,73,0.00,,---,0.00,VWS V14.01,2013-05-04 17:45:00,
2013-05-04 13:50:00,59.6,51.3,30.06,North,349,6.0,13.0,74,0.00,,---,0.00,VWS V14.01,2013-05-04 17:50:00,
2013-05-04 13:56:00,59.7,51.0,30.06,ENE,77,5.0,17.0,73,0.00,,---,0.00,VWS V14.01,2013-05-04 17:56:00,
2013-05-04 14:01:00,59.7,51.0,30.06,ESE,111,6.0,15.0,73,0.00,,---,0.00,VWS V14.01,2013-05-04 18:01:00,
2013-05-04 14:06:00,59.9,51.2,30.06,North,1,2.0,9.0,73,0.00,,---,0.00,VWS V14.01,2013-05-04 18:06:00,
2013-05-04 14:11:00,59.4,50.8,30.06,NE,34,4.0,15.0,73,0.00,,---,0.00,VWS V14.01,2013-05-04 18:11:00,
2013-05-04 14:16:00,59.4,51.5,30.06,NE,43,4.0,14.0,75,0.00,,---,0.00,VWS V14.01,2013-05-04 18:16:00,
2013-05-04 14:21:00,59.5,51.2,30.05,NE,47,9.0,16.0,74,0.00,,---,0.00,VWS V14.01,2013-05-04 18:21:00,
2013-05-04 14:26:00,59.9,51.2,30.05,East,86,3.0,16.0,73,0.00,,---,0.00,VWS V14.01,2013-05-04 18:26:00,
2013-05-04 14:31:00,60.1,51.1,30.04,NNE,26,5.0,5.0,72,0.00,,---,0.00,VWS V14.01,2013-05-04 18:31:00,
2013-05-04 14:36:00,61.0,52.3,30.04,East,93,3.0,4.0,73,0.00,,---,0.00,VWS V14.01,2013-05-04 18:36:00,
2013-05-04 14:41:00,61.7,51.8,30.04,NNE,32,7.0,10.0,70,0.00,,---,0.00,VWS V14.01,2013-05-04 18:41:00,
2013-05-04 14:46:00,61.7,51.4,30.04,North,349,5.0,9.0,69,0.00,,---,0.00,VWS V14.01,2013-05-04 18:46:00,
2013-05-04 14:51:00,61.9,52.0,30.03,NE,36,12.0,12.0,70,0.00,,---,0.00,VWS V14.01,2013-05-04 18:51:00,
2013-05-04 14:56:00,61.8,51.5,30.04,East,86,6.0,8.0,69,0.00,,---,0.00,VWS V14.01,2013-05-04 18:56:00,
2013-05-04 15:01:00,61.8,51.5,30.04,NE,37,5.0,7.0,69,0.00,,---,0.00,VWS V14.01,2013-05-04 19:01:00,
2013-05-04 15:06:00,61.6,51.3,30.03,NE,49,7.0,10.0,69,0.00,,---,0.00,VWS V14.01,2013-05-04 19:06:00,
2013-05-04 15:11:00,61.4,51.9,30.03,ESE,113,6.0,9.0,71,0.00,,---,0.00,VWS V14.01,2013-05-04 19:11:00,
2013-05-04 15:16:00,61.5,52.0,30.03,NE,36,0.0,2.0,71,0.00,,---,0.00,VWS V14.01,2013-05-04 19:16:00,
2013-05-04 15:21:00,61.4,51.9,30.03,NE,34,4.0,8.0,71,0.00,,---,0.00,VWS V14.01,2013-05-04 19:21:00,
2013-05-04 15:26:00,61.4,51.9,30.03,NE,53,8.0,11.0,71,0.00,,---,0.00,VWS V14.01,2013-05-04 19:26:00,
2013-05-04 15:31:00,61.3,52.2,30.02,ENE,57,8.0,8.0,72,0.00,,---,0.00,VWS V14.01,2013-05-04 19:31:00,
2013-05-04 15:37:00,61.2,52.1,30.02,NE,45,6.0,11.0,72,0.00,,---,0.00,VWS V14.01,2013-05-04 19:37:00,
2013-05-04 15:42:00,61.1,52.0,30.02,NE,44,5.0,5.0,72,0.00,,---,0.00,VWS V14.01,2013-05-04 19:42:00,
2013-05-04 15:47:00,60.9,51.8,30.02,ENE,61,12.0,12.0,72,0.00,,---,0.00,VWS V14.01,2013-05-04 19:47:00,
2013-05-04 15:52:00,60.7,52.0,30.02,ENE,61,3.0,4.0,73,0.00,,---,0.00,VWS V14.01,2013-05-04 19:52:00,
2013-05-04 15:57:00,60.7,52.0,30.02,East,94,11.0,12.0,73,0.00,,---,0.00,VWS V14.01,2013-05-04 19:57:00,
2013-05-04 16:02:00,60.6,51.9,30.02,East,82,11.0,13.0,73,0.00,,---,0.00,VWS V14.01,2013-05-04 20:02:00,
2013-05-04 16:07:00,60.5,51.8,30.02,ENE,60,7.0,7.0,73,0.00,,---,0.00,VWS V14.01,2013-05-04 20:07:00,
2013-05-04 16:12:00,60.4,51.7,30.02,ENE,74,3.0,10.0,73,0.00,,---,0.00,VWS V14.01,2013-05-04 20:12:00,
2013-05-04 16:17:00,60.4,51.7,30.02,East,85,1.0,15.0,73,0.00,,---,0.00,VWS V14.01,2013-05-04 20:17:00,
2013-05-04 16:22:00,60.4,51.7,30.02,East,88,6.0,14.0,73,0.00,,---,0.00,VWS V14.01,2013-05-04 20:22:00,
2013-05-04 16:27:00,60.3,51.6,30.02,NE,44,5.0,14.0,73,0.00,,---,0.00,VWS V14.01,2013-05-04 20:27:00,
2013-05-04 16:32:00,60.3,52.0,30.02,East,84,3.0,9.0,74,0.00,,---,0.00,VWS V14.01,2013-05-04 20:32:00,
2013-05-04 16:37:00,60.4,52.1,30.02,NE,43,2.0,6.0,74,0.00,,---,0.00,VWS V14.01,2013-05-04 20:37:00,
2013-05-04 16:42:00,60.4,52.1,30.02,ENE,70,0.0,5.0,74,0.00,,---,0.00,VWS V14.01,2013-05-04 20:42:00,
2013-05-04 16:47:00,60.5,52.5,30.02,ENE,61,7.0,9.0,75,0.00,,---,0.00,VWS V14.01,2013-05-04 20:47:00,
2013-05-04 16:52:00,60.5,52.2,30.01,ENE,68,1.0,7.0,74,0.00,,---,0.00,VWS V14.01,2013-05-04 20:52:00,
2013-05-04 16:57:00,60.6,52.3,30.01,ENE,63,2.0,14.0,74,0.00,,---,0.00,VWS V14.01,2013-05-04 20:57:00,
2013-05-04 17:02:00,60.9,52.6,30.01,NE,44,10.0,10.0,74,0.00,,---,0.00,VWS V14.01,2013-05-04 21:02:00,
2013-05-04 17:08:00,61.1,52.8,30.01,NE,37,5.0,9.0,74,0.00,,---,0.00,VWS V14.01,2013-05-04 21:08:00,
2013-05-04 17:13:00,61.3,52.6,30.01,ENE,59,3.0,12.0,73,0.00,,---,0.00,VWS V14.01,2013-05-04 21:13:00,
2013-05-04 17:18:00,61.5,52.8,30.01,ENE,70,4.0,9.0,73,0.00,,---,0.00,VWS V14.01,2013-05-04 21:18:00,
2013-05-04 17:23:00,61.7,52.6,30.02,ENE,77,3.0,11.0,72,0.00,,---,0.00,VWS V14.01,2013-05-04 21:23:00,
2013-05-04 17:28:00,61.5,52.4,30.01,NE,37,10.0,13.0,72,0.00,,---,0.00,VWS V14.01,2013-05-04 21:28:00,
2013-05-04 17:33:00,61.5,53.2,30.02,NE,41,0.0,8.0,74,0.00,,---,0.00,VWS V14.01,2013-05-04 21:33:00,
2013-05-04 17:38:00,61.4,52.7,30.01,NE,53,3.0,6.0,73,0.00,,---,0.00,VWS V14.01,2013-05-04 21:38:00,
2013-05-04 17:43:00,61.4,53.0,30.02,NE,44,2.0,9.0,74,0.00,,---,0.00,VWS V14.01,2013-05-04 21:43:00,
2013-05-04 17:48:00,61.2,52.9,30.02,NE,53,5.0,7.0,74,0.00,,---,0.00,VWS V14.01,2013-05-04 21:48:00,
2013-05-04 17:53:00,61.1,52.8,30.02,ENE,65,1.0,9.0,74,0.00,,---,0.00,VWS V14.01,2013-05-04 21:53:00,
2013-05-04 17:58:00,60.9,52.6,30.02,ENE,70,4.0,6.0,74,0.00,,---,0.00,VWS V14.01,2013-05-04 21:58:00,
2013-05-04 18:03:00,60.8,52.5,30.02,NNE,23,0.0,8.0,74,0.00,,---,0.00,VWS V14.01,2013-05-04 22:03:00,
2013-05-04 18:08:00,60.7,52.4,30.02,ENE,61,3.0,7.0,74,0.00,,---,0.00,VWS V14.01,2013-05-04 22:08:00,
2013-05-04 18:13:00,60.7,52.4,30.02,ENE,57,4.0,6.0,74,0.00,,---,0.00,VWS V14.01,2013-05-04 22:13:00,
2013-05-04 18:18:00,60.8,52.5,30.02,ESE,113,0.0,7.0,74,0.00,,---,0.00,VWS V14.01,2013-05-04 22:18:00,
2013-05-04 18:23:00,60.7,52.4,30.01,NE,53,3.0,9.0,74,0.00,,---,0.00,VWS V14.01,2013-05-04 22:23:00,
2013-05-04 18:28:00,60.7,52.7,30.01,ENE,70,2.0,7.0,75,0.00,,---,0.00,VWS V14.01,2013-05-04 22:28:00,
2013-05-04 18:33:00,60.7,52.4,30.01,ENE,57,3.0,9.0,74,0.00,,---,0.00,VWS V14.01,2013-05-04 22:33:00,
2013-05-04 18:38:00,60.8,52.5,30.01,NE,44,3.0,6.0,74,0.00,,---,0.00,VWS V14.01,2013-05-04 22:38:00,
2013-05-04 18:43:00,60.7,52.4,30.00,ENE,70,2.0,11.0,74,0.00,,---,0.00,VWS V14.01,2013-05-04 22:43:00,
2013-05-04 18:48:00,60.7,52.7,30.01,NE,53,2.0,7.0,75,0.00,,---,0.00,VWS V14.01,2013-05-04 22:48:00,
2013-05-04 18:53:00,60.6,52.6,30.01,ENE,63,4.0,9.0,75,0.00,,---,0.00,VWS V14.01,2013-05-04 22:53:00,
2013-05-04 18:58:00,60.6,52.6,30.01,NE,40,3.0,7.0,75,0.00,,---,0.00,VWS V14.01,2013-05-04 22:58:00,
2013-05-04 19:03:00,60.6,52.6,30.00,NE,51,3.0,10.0,75,0.00,,---,0.00,VWS V14.01,2013-05-04 23:03:00,
2013-05-04 19:08:00,60.6,52.6,30.00,ENE,61,6.0,12.0,75,0.00,,---,0.00,VWS V14.01,2013-05-04 23:08:00,
2013-05-04 19:13:00,60.6,52.6,30.00,NE,51,3.0,8.0,75,0.00,,---,0.00,VWS V14.01,2013-05-04 23:13:00,
2013-05-04 19:19:00,60.6,52.6,30.00,ENE,68,2.0,14.0,75,0.00,,---,0.00,VWS V14.01,2013-05-04 23:19:00,
2013-05-04 19:24:00,60.7,52.7,30.00,East,91,1.0,5.0,75,0.00,,---,0.00,VWS V14.01,2013-05-04 23:24:00,
2013-05-04 19:29:00,60.7,52.4,30.00,ESE,121,3.0,11.0,74,0.00,,---,0.00,VWS V14.01,2013-05-04 23:29:00,
2013-05-04 19:34:00,60.8,52.5,30.00,NNE,26,8.0,10.0,74,0.00,,---,0.00,VWS V14.01,2013-05-04 23:34:00,
2013-05-04 19:39:00,60.8,52.1,30.00,NE,49,3.0,15.0,73,0.00,,---,0.00,VWS V14.01,2013-05-04 23:39:00,
2013-05-04 19:44:00,60.9,52.2,30.00,NE,54,3.0,11.0,73,0.00,,---,0.00,VWS V14.01,2013-05-04 23:44:00,
2013-05-04 19:49:00,60.8,52.5,30.00,ENE,57,3.0,8.0,74,0.00,,---,0.00,VWS V14.01,2013-05-04 23:49:00,
2013-05-04 19:54:00,60.7,52.4,30.00,NE,53,4.0,5.0,74,0.00,,---,0.00,VWS V14.01,2013-05-04 23:54:00,
2013-05-04 19:59:00,60.7,52.4,30.01,East,81,3.0,7.0,74,0.00,,---,0.00,VWS V14.01,2013-05-04 23:59:00,
2013-05-04 20:04:00,60.7,52.4,30.00,NE,56,3.0,9.0,74,0.00,,---,0.00,VWS V14.01,2013-05-05 00:04:00,
2013-05-04 20:09:00,60.6,52.3,30.00,NE,45,9.0,11.0,74,0.00,,---,0.00,VWS V14.01,2013-05-05 00:09:00,
2013-05-04 20:14:00,60.6,52.3,30.00,ENE,74,3.0,10.0,74,0.00,,---,0.00,VWS V14.01,2013-05-05 00:14:00,
2013-05-04 20:19:00,60.5,52.5,30.00,SE,135,1.0,10.0,75,0.00,,---,0.00,VWS V14.01,2013-05-05 00:19:00,
2013-05-04 20:24:00,60.5,52.2,30.00,ENE,63,6.0,12.0,74,0.00,,---,0.00,VWS V14.01,2013-05-05 00:24:00,
2013-05-04 20:29:00,60.5,52.5,30.00,NE,54,2.0,8.0,75,0.00,,---,0.00,VWS V14.01,2013-05-05 00:29:00,
2013-05-04 20:34:00,60.4,52.5,30.00,NE,49,3.0,10.0,75,0.00,,---,0.00,VWS V14.01,2013-05-05 00:34:00,
2013-05-04 20:39:00,60.4,52.5,30.00,ENE,57,2.0,13.0,75,0.00,,---,0.00,VWS V14.01,2013-05-05 00:39:00,
2013-05-04 20:44:00,60.5,52.5,30.00,ENE,77,8.0,11.0,75,0.00,,---,0.00,VWS V14.01,2013-05-05 00:44:00,
2013-05-04 20:49:00,60.5,52.5,30.00,ENE,64,6.0,13.0,75,0.00,,---,0.00,VWS V14.01,2013-05-05 00:49:00,
2013-05-04 20:55:00,60.4,52.5,30.00,ESE,116,4.0,17.0,75,0.00,,---,0.00,VWS V14.01,2013-05-05 00:55:00,
2013-05-04 21:00:00,60.4,52.5,30.00,ENE,63,12.0,12.0,75,0.00,,---,0.00,VWS V14.01,2013-05-05 01:00:00,
2013-05-04 21:05:00,60.4,52.1,30.00,NE,54,7.0,14.0,74,0.00,,---,0.00,VWS V14.01,2013-05-05 01:05:00,
2013-05-04 21:10:00,60.3,52.3,30.00,ENE,65,4.0,15.0,75,0.00,,---,0.00,VWS V14.01,2013-05-05 01:10:00,
2013-05-04 21:15:00,60.2,52.3,30.00,NE,44,3.0,12.0,75,0.00,,---,0.00,VWS V14.01,2013-05-05 01:15:00,
2013-05-04 21:20:00,60.1,52.2,30.00,NNE,27,5.0,19.0,75,0.00,,---,0.00,VWS V14.01,2013-05-05 01:20:00,
2013-05-04 21:25:00,60.0,52.1,30.00,ENE,75,8.0,17.0,75,0.00,,---,0.00,VWS V14.01,2013-05-05 01:25:00,
2013-05-04 21:30:00,59.9,52.0,30.00,NE,46,4.0,18.0,75,0.00,,---,0.00,VWS V14.01,2013-05-05 01:30:00,
2013-05-04 21:35:00,59.8,51.9,30.00,NNE,22,9.0,13.0,75,0.00,,---,0.00,VWS V14.01,2013-05-05 01:35:00,
2013-05-04 21:40:00,59.9,52.0,30.00,North,356,9.0,20.0,75,0.00,,---,0.00,VWS V14.01,2013-05-05 01:40:00,
2013-05-04 21:45:00,59.9,52.0,30.00,NNE,26,4.0,17.0,75,0.00,,---,0.00,VWS V14.01,2013-05-05 01:45:00,
2013-05-04 21:50:00,59.8,52.2,30.00,NE,49,11.0,16.0,76,0.00,,---,0.00,VWS V14.01,2013-05-05 01:50:00,
2013-05-04 21:55:00,59.8,52.2,30.00,ENE,70,3.0,18.0,76,0.00,,---,0.00,VWS V14.01,2013-05-05 01:55:00,
2013-05-04 22:00:00,59.7,52.5,30.01,NNE,29,7.0,19.0,77,0.00,,---,0.00,VWS V14.01,2013-05-05 02:00:00,
2013-05-04 22:05:00,59.6,52.4,30.01,NE,46,3.0,19.0,77,0.00,,---,0.00,VWS V14.01,2013-05-05 02:05:00,
2013-05-04 22:10:00,59.5,52.3,30.01,ENE,61,8.0,14.0,77,0.00,,---,0.00,VWS V14.01,2013-05-05 02:10:00,
2013-05-04 22:15:00,59.4,52.5,30.02,East,85,8.0,17.0,78,0.00,,---,0.00,VWS V14.01,2013-05-05 02:15:00,
2013-05-04 22:20:00,59.3,52.8,30.02,East,85,7.0,19.0,79,0.00,,---,0.00,VWS V14.01,2013-05-05 02:20:00,
2013-05-04 22:26:00,59.2,52.7,30.02,NE,41,2.0,17.0,79,0.00,,---,0.00,VWS V14.01,2013-05-05 02:26:00,
2013-05-04 22:31:00,59.1,52.6,30.02,East,86,9.0,12.0,79,0.00,,---,0.00,VWS V14.01,2013-05-05 02:31:00,
2013-05-04 22:36:00,59.0,52.8,30.02,East,91,5.0,18.0,80,0.00,,---,0.00,VWS V14.01,2013-05-05 02:36:00,
2013-05-04 22:41:00,58.9,52.8,30.02,NE,43,8.0,15.0,80,0.00,,---,0.00,VWS V14.01,2013-05-05 02:41:00,
2013-05-04 22:46:00,58.8,53.0,30.02,East,100,8.0,15.0,81,0.00,,---,0.00,VWS V14.01,2013-05-05 02:46:00,
2013-05-04 22:51:00,58.7,52.9,30.02,NE,43,8.0,15.0,81,0.00,,---,0.00,VWS V14.01,2013-05-05 02:51:00,
2013-05-04 22:56:00,58.6,52.8,30.02,NE,54,15.0,18.0,81,0.00,,---,0.00,VWS V14.01,2013-05-05 02:56:00,
2013-05-04 23:01:00,58.6,53.1,30.02,East,89,8.0,18.0,82,0.00,,---,0.00,VWS V14.01,2013-05-05 03:01:00,
2013-05-04 23:06:00,58.4,52.9,30.01,NE,46,5.0,14.0,82,0.00,,---,0.00,VWS V14.01,2013-05-05 03:06:00,
2013-05-04 23:11:00,58.3,52.8,30.02,NE,54,12.0,15.0,82,0.00,,---,0.00,VWS V14.01,2013-05-05 03:11:00,
2013-05-04 23:16:00,58.3,52.8,30.02,SE,128,8.0,8.0,82,0.00,,---,0.00,VWS V14.01,2013-05-05 03:16:00,
2013-05-04 23:21:00,58.2,52.7,30.02,NE,53,4.0,4.0,82,0.00,,---,0.00,VWS V14.01,2013-05-05 03:21:00,
2013-05-04 23:26:00,58.1,52.6,30.02,NE,40,4.0,12.0,82,0.00,,---,0.00,VWS V14.01,2013-05-05 03:26:00,
2013-05-04 23:31:00,58.0,52.5,30.02,ENE,64,14.0,16.0,82,0.00,,---,0.00,VWS V14.01,2013-05-05 03:31:00,
2013-05-04 23:36:00,58.0,52.9,30.02,East,82,9.0,15.0,83,0.00,,---,0.00,VWS V14.01,2013-05-05 03:36:00,
2013-05-04 23:41:00,57.9,52.8,30.01,East,91,9.0,9.0,83,0.00,,---,0.00,VWS V14.01,2013-05-05 03:41:00,
2013-05-04 23:46:00,57.8,52.7,30.02,ENE,75,6.0,6.0,83,0.00,,---,0.00,VWS V14.01,2013-05-05 03:46:00,
2013-05-04 23:51:00,57.8,52.7,30.02,NE,51,11.0,13.0,83,0.00,,---,0.00,VWS V14.01,2013-05-05 03:51:00,
2013-05-04 23:56:00,57.8,52.7,30.01,ENE,60,9.0,14.0,83,0.00,,---,0.00,VWS V14.01,2013-05-05 03:56:00,